Location: ActonStarParty
(42.4766°N, 71.4538°W)
Time: 03:12:52
(UTC-04:00)

ATLAS 5 CENTAUR R/B - Visible Passes

Search period start: 25 May 2016 00:00
Search period end: 04 June 2016 00:00
Orbit: 246 x 14752 km, 60.8° (Epoch: 30 March)

Date Brightness Start Highest point End Pass type
(mag) Time Alt. Az. Time Alt. Az. Time Alt. Az.
25 May 8.3 00:59:24 10° NW 01:10:21 10° NW 01:20:10 10° NW visible
25 May 7.4 22:44:21 10° NNW 23:51:30 25° WNW 00:22:27 10° WSW visible
26 May 6.9 20:47:20 10° NW 22:27:04 46° W 22:56:30 10° SSW visible
27 May 6.7 18:50:54 10° NW 20:55:14 71° WSW 21:24:27 10° S visible
28 May 7.5 22:35:57 10° NNW 23:39:43 24° WNW 00:10:45 10° WSW visible
29 May 7.0 20:38:07 10° NW 22:15:29 44° W 22:45:23 10° SSW visible
30 May 6.8 18:41:18 10° NW 20:43:57 69° WSW 21:13:15 10° S visible
31 May 7.6 22:25:43 10° NNW 23:26:38 22° WNW 23:57:41 10° W visible
01 Jun 7.1 20:27:04 10° NW 22:02:30 42° W 22:32:50 10° SW visible
02 Jun 6.8 18:29:51 10° NW 20:31:08 67° W 21:00:35 10° S visible
03 Jun 7.7 22:13:38 10° NNW 23:12:15 21° WNW 23:43:19 10° W visible
